Regional Weather Roundup
Issued by NWS State College, PA

Home | Current Version | Previous Version | Graphics & Text | Print | Product List | Glossary On
Versions: 1 2 3 4 5 6 7 8 9 10 11 12 13 14 15 16 17 18 19 20 21 22 23 24 25 26 27 28 29 30 31 32 33 34 35 36 37 38 39 40 41 42 43 44 45 46 47 48 49 50
000
ASUS41 KCTP 030010
RWRCTP

REGIONAL WEATHER ROUNDUP
NATIONAL WEATHER SERVICE STATE COLLEGE PA
800 PM EDT TUE SEP 02 2014

Note: "fair" indicates few or no clouds below 12,000 feet with no
significant weather and/or obstructions to visibility.

* = STATION THAT DOES NOT REPORT PRECIPITATION /E.G. RAIN...SNOW...ETC/
    THUNDER OR FOG.

PAZ002>004-007>009-013>016-020>023-029>032-030100-
WESTERN PENNSYLVANIA

CITY           SKY/WX    TMP DP  RH WIND       PRES   REMARKS
ERIE           MOCLDY    70  65  84 CALM      29.90R
MEADVILLE      PTCLDY    68  63  84 W7        29.94R
FRANKLIN*      CLOUDY    68  64  88 W6        29.96R
NEW CASTLE     MOCLDY    73  67  81 CALM      29.94R
BEAVER COUNTY  MOCLDY    73  66  78 CALM      29.94R
BUTLER*        MOCLDY    72  64  78 W6        29.95R
PITTSBURGH INT MOCLDY    75  66  73 W7        29.93R
PITTSBURGH     MOCLDY    76  63  64 W9        29.92R
INDIANA*       CLOUDY    72  68  88 NW7       29.97R
LATROBE        MOCLDY    75  73  94 SW6       29.93R
WASHINGTON CO* PTCLDY    73  64  73 W7        29.96R
$$

PAZ004>006-010>012-017>019-024>028-033>037-041-042-045-046-049>053-030100-
CENTRAL PENNSYLVANIA

CITY           SKY/WX    TMP DP  RH WIND       PRES   REMARKS
BRADFORD       PTCLDY    65  63  93 W9        29.94R
DUBOIS         MOCLDY    67  65  93 W6        29.94R
CLEARFIELD     MOCLDY    69  65  86 VRB6      29.93R
JOHNSTOWN      HVY RAIN  69  66  90 NW20G25   29.97R FOG
ALTOONA        MOCLDY    77  66  68 W8        29.91R
STATE COLLEGE  MOCLDY    72  68  88 W7        29.92R
WILLIAMSPORT   LGT RAIN  75  69  81 W16       29.82R
SELINSGROVE    RAIN      74  72  93 NW5       29.85R FOG
FT INDIANTOWN  CLOUDY    76  71  87 SW6       29.85S
CAPITAL CITY   CLOUDY    73  67  81 W6        29.84S
HARRISBURG     CLOUDY    75  69  81 SW8       29.83F
YORK           CLOUDY    71  68  90 S3        29.87R
$$

PAZ038>040-043-044-047-048-054-055-060>062-067>071-030100-
EASTERN PENNSYLVANIA

CITY           SKY/WX    TMP DP  RH WIND       PRES   REMARKS
SCRANTON       RAIN      81  67  62 SW8       29.82S
MOUNT POCONO   MOCLDY    75  65  70 SW15G25   29.89F
ALLENTOWN      MOCLDY    81  70  69 W3        29.82F
QUAKERTOWN*    MOCLDY    81  72  74 MISG      29.85S
READING        LGT RAIN  77  71  82 S7        29.82F
LANCASTER      CLOUDY    72  68  87 S7        29.85S
COATESVILLE    LGT RAIN  72  68  88 S3        29.89S
POTTSTOWN      LGT RAIN  77  68  73 SW8       29.88R
BLUE BELL      MOCLDY    81  72  74 SW6G18    29.85R
DOYLESTOWN     PTCLDY    83  70  64 S6        29.84S
WILLOW GROVE   NOT AVBL
NORTH PHILA    PTCLDY    88  68  51 SW9       29.85S
PHILADELPHIA   TSTM      77  67  71 W25G46    29.91R
$$


USA.gov is the U.S. government's official web portal to all federal, state and local government web resources and services.